Balikesir Edremit Korfez, Turkey

3:44 AM +03 on June 25, 2018 (GMT +0300)
Edremit Korfez

Weather History for LTFD - August, 2017

Change the Weather History Date:

Saturday, August 12, 2017

  Actual Average (LGMT) Record (LGMT)
Temperature  
Mean Temperature 86 °F -  
Max Temperature 96 °F 88 °F 102 °F (2002)
Min Temperature 77 °F 71 °F 69 °F (1996)
Cooling Degree Days 22    
Growing Degree Days 36 (Base 50)    
Moisture  
Dew Point 56 °F    
Average Humidity 38    
Maximum Humidity 61    
Minimum Humidity 23    
Precipitation  
Precipitation 0.00 in - - ()
Sea Level Pressure  
Sea Level Pressure 29.75 in    
Wind  
Wind Speed 13 mph ()    
Max Wind Speed 20 mph    
Max Gust Speed 28 mph    
Visibility 6.2 miles    
Events      
Averages and records for this station are not official NWS values.
T = Trace of Precipitation, MM = Missing Value Source: Averaged Metar Reports

Daily Weather History Graph

Daily Weather History Graph

Search for Another Location

Airport or City:

Astronomy

Aug. 12, 2017 Rise Set
Actual Time 6:21 AM +03 8:11 PM +03
Civil Twilight 5:52 AM +03 8:40 PM +03
Nautical Twilight 5:17 AM +03 9:15 PM +03
Astronomical Twilight 4:39 AM +03 9:53 PM +03
Moon 10:59 PM +03 (8/12) 10:54 AM +03 (8/12)
Length of Visible Light 14h 48m
Length of Day
13h 50m
Waning Gibbous, 78% of the Moon is Illuminated
Aug 12
Waning Gibbous
Aug 15
Last Quarter
Aug 21
New
Aug 29
First Quarter
Sep 6
Full

Hourly Weather History & Observations

Time (+03) Temp. Heat Index Dew Point Humidity Pressure Visibility Wind Dir Wind Speed Gust Speed Precip Events Conditions
4:50 AM 77.0 °F - 62.6 °F 61% 29.77 in - East 13.8 mph - N/A   Clear
5:50 AM 78.8 °F - 64.4 °F 61% 29.77 in - ENE 16.1 mph - N/A   Clear
6:50 AM 78.8 °F - 62.6 °F 57% 29.77 in - East 16.1 mph - N/A   Clear
7:50 AM 78.8 °F - 62.6 °F 57% 29.80 in - East 13.8 mph - N/A   Clear
8:50 AM 82.4 °F 83.9 °F 64.4 °F 54% 29.80 in - East 15.0 mph - N/A   Clear
9:50 AM 86.0 °F 86.1 °F 60.8 °F 43% 29.80 in - ENE 15.0 mph - N/A   Clear
10:50 AM 89.6 °F 89.5 °F 60.8 °F 38% 29.80 in - ENE 12.7 mph - N/A   Clear
11:50 AM 93.2 °F 90.8 °F 53.6 °F 26% 29.77 in - ENE 18.4 mph - N/A   Clear
12:50 PM 96.8 °F 94.4 °F 53.6 °F 23% 29.77 in - NE 17.3 mph - N/A   Clear
1:50 PM 96.8 °F 95.1 °F 55.4 °F 25% 29.77 in 6.2 mi ENE 19.6 mph - N/A   Partly Cloudy
2:50 PM 96.8 °F 95.8 °F 57.2 °F 27% 29.74 in 6.2 mi ENE 15.0 mph 26.5 mph N/A   Partly Cloudy
3:50 PM 95.0 °F 93.0 °F 55.4 °F 26% 29.74 in - ENE 16.1 mph 27.6 mph N/A   Clear
4:50 PM 95.0 °F - 51.8 °F 23% 29.71 in - NE 16.1 mph 27.6 mph N/A   Clear
5:50 PM 93.2 °F 90.8 °F 53.6 °F 26% 29.71 in - ENE 16.1 mph - N/A   Clear
6:50 PM 91.4 °F - 51.8 °F 26% 29.71 in - NE 12.7 mph - N/A   Clear
7:50 PM 87.8 °F - 50.0 °F 27% 29.71 in - ENE 11.5 mph - N/A   Clear
8:50 PM 86.0 °F - 50.0 °F 29% 29.71 in - ENE 9.2 mph - N/A   Clear
9:50 PM 80.6 °F - 51.8 °F 37% 29.71 in - East 8.1 mph - N/A   Clear
10:50 PM 78.8 °F - 51.8 °F 39% 29.71 in - East 10.4 mph - N/A   Clear
11:50 PM 77.0 °F - 55.4 °F 47% 29.71 in - East 10.4 mph - N/A   Clear